Regional Weather Roundup
Issued by NWS Albany, NY

Home | Current Version | Previous Version | Graphics & Text | Print | Product List | Glossary Off
Versions: 1 2 3 4 5 6 7 8 9 10 11 12 13 14 15 16 17 18 19 20 21 22 23 24 25 26 27 28 29 30 31 32 33 34 35 36 37 38 39 40 41 42 43 44 45 46 47 48 49 50

459
ASUS41 KALY 141310
RWRALY

NEW YORK STATE HOURLY WEATHER ROUNDUP
NATIONAL WEATHER SERVICE ALBANY NY
800 AM EST SUN FEB 14 2016

NOTE: "FAIR" INDICATES FEW OR NO CLOUDS BELOW 12,000 FEET WITH NO
SIGNIFICANT WEATHER AND/OR NO OBSTRUCTIONS TO VISIBILITY.

NYZ032-033-038>043-046>054-057>066-NYZ062>081-141400-
EAST


CITY           SKY/WX    TMP DP  RH WIND       PRES   REMARKS
ALBANY         MOSUNNY  -12 -26  49 NW10      30.53R WCI -31
GLENS FALLS    SUNNY    -12 -26  49 CALM      30.51R
POUGHKEEPSIE   MOSUNNY   -5 -22  44 NE8       30.51R WCI -20
NEWBURGH       SUNNY     -4 -17  54 NW5       30.47R WCI -15
MONTGOMERY     SUNNY     -4 -20  46 NW14G21   30.46R WCI -24
WHITE PLAINS   SUNNY     -3 -18  48 NW17G24   30.42R WCI -24
ISLIP          MOSUNNY    1 -13  51 NW21G33   30.46R WCI -21
NEW YORK CITY  MOSUNNY    2 -12  52 NW24G33   30.51R WCI -21
CENTRAL PARK   SUNNY     -1 -18  44 NW13G22   30.53R WCI -19
$$

NYZ005>009-017-018-044>046-055-056-141400-
CENTRAL


CITY           SKY/WX    TMP DP  RH WIND       PRES   REMARKS
FULTON         CLOUDY   -16 -23  70 CALM      30.56R HAZE
SYRACUSE       CLOUDY   -22 -25  85 SE5       30.56R WCI -36
ROME           CLOUDY   -25 -31  73 CALM      30.58R
ELMIRA         CLOUDY   -10 -16  74 CALM      30.48R
BINGHAMTON     CLOUDY   -18 -22  82 CALM      30.35R
MONTICELLO     SUNNY    -11 -18  70 NW14G22   30.35R WCI -33
$$

NYZ026>034-041>043-141400-
NORTH


CITY           SKY/WX    TMP DP  RH WIND       PRES   REMARKS
WATERTOWN      CLOUDY   -29 -34  76 E5        30.58R HAZE    WCI -44
FORT DRUM      NOT AVBL
MASSENA        CLOUDY   -23 -29  73 SW7       30.58R WCI -41
SARANAC LAKE   CLOUDY   -28 -32  80 S6        30.29R WCI -45
PLATTSBURGH    CLEAR    -15 -28  52 W5        30.50R WCI -27
$$

NYZ001>004-010>016-019>021-141400-
WEST


CITY           SKY/WX    TMP DP  RH WIND       PRES   REMARKS
NIAGARA FALLS  PTCLDY   -10 -15  78 S3        30.53R
BUFFALO        CLOUDY   -12 -17  78 S7        30.51S WCI -27
DUNKIRK        CLOUDY    -3 -10  72 SE7       30.51S WCI -16
JAMESTOWN      CLOUDY    -6  -9  84 CALM      30.35R
WELLSVILLE     CLOUDY   -12 -18  74 W5        30.33R WCI -24
ROCHESTER      PTCLDY   -11 -15  82 SW5       30.53R WCI -23
PENN YAN       CLEAR     -6 -14  68 W7        30.47R WCI -20
$$

             KEY
       WCI = WIND CHILL INDEX
       VSB = VISIBILITY
       HX  = HEAT INDEX
$$




USA.gov is the U.S. government's official web portal to all federal, state and local government web resources and services.